Location: Home
(42.5358°N, 72.7383°W)
Time: 10:30:04
(UTC-05:00)

Courier 1B - Pass Details

Date: 03 December 2021
Orbit: 962 x 1209 km, 28.3° (Epoch: 21 January)

Event Time Altitude Azimuth Distance (km) Brightness Sun altitude
Rises 14:50:08 0° 202° (SSW) 4,063 12.1 12.0°
Reaches altitude 10° 14:55:52 10° 169° (S) 3,054 10.7 11.2°
Maximum altitude 14:57:39 11° 155° (SSE) 2,966 10.4 11.0°
Drops below altitude 10° 14:59:26 10° 141° (SE) 3,018 10.2 10.7°
Sets 15:04:55 0° 108° (ESE) 3,910 10.4 10.0°
